www.pogodaiklimat.ru
Время
(UTC), дата
13 30.11
14 30.11
15 30.11
16 30.11
17 30.11
18 30.11
19 30.11
20 30.11
21 30.11
22 30.11
23 30.11
00 1.12
01 1.12
02 1.12
03 1.12
04 1.12
05 1.12
06 1.12
07 1.12
08 1.12
09 1.12
10 1.12
11 1.12
12 1.12
13 1.12
14 1.12
15 1.12
16 1.12
17 1.12
18 1.12
19 1.12
20 1.12
21 1.12
22 1.12
23 1.12
00 2.12
01 2.12
02 2.12
03 2.12
04 2.12
05 2.12
06 2.12
07 2.12
08 2.12
09 2.12
10 2.12
11 2.12
12 2.12
13 2.12
14 2.12
15 2.12
16 2.12
17 2.12
18 2.12
19 2.12
20 2.12
21 2.12
22 2.12
23 2.12
00 3.12
01 3.12
02 3.12
03 3.12
04 3.12
05 3.12
06 3.12
07 3.12
08 3.12
09 3.12
10 3.12
11 3.12
12 3.12
13 3.12
14 3.12
15 3.12
16 3.12
17 3.12
18 3.12
19 3.12
20 3.12
21 3.12
22 3.12
23 3.12
00 4.12
01 4.12
02 4.12
03 4.12
04 4.12
05 4.12
06 4.12
07 4.12
08 4.12
09 4.12
10 4.12
11 4.12
12 4.12
13 4.12
14 4.12
15 4.12
16 4.12
17 4.12
18 4.12
19 4.12
20 4.12
21 4.12
22 4.12
23 4.12
00 5.12
01 5.12
02 5.12
03 5.12
04 5.12
05 5.12
06 5.12
07 5.12
08 5.12
09 5.12
10 5.12
11 5.12
12 5.12
13 5.12
14 5.12
15 5.12
16 5.12
17 5.12
18 5.12
19 5.12
20 5.12
21 5.12
22 5.12
23 5.12
00 6.12
01 6.12
02 6.12
03 6.12
04 6.12
05 6.12
06 6.12
07 6.12
08 6.12
09 6.12
10 6.12
11 6.12
12 6.12
13 6.12
14 6.12
15 6.12
16 6.12
17 6.12
18 6.12
19 6.12
20 6.12
21 6.12
22 6.12
23 6.12
00 7.12
01 7.12
02 7.12
03 7.12
04 7.12
05 7.12
06 7.12
07 7.12
08 7.12
09 7.12
10 7.12
11 7.12
Ветер
(напр.,м/с)
Видим. Явления Облачность Т
(С)
Тd
(С)
f
(%)
Тe
(С)
Тes
(С)
Комфортность P
(гПа)
Po
(гПа)
Тmin
(С)
Tmax
(С)
R
(мм)
R24
(мм)
S
(см)
СВ 2-3
{3}
45 км ясно +5.0 +1.4 78 +3 +4 по сезону 1023.9 995.2
В 3-4
{5}
35 км ясно +5.3 +1.9 79 +2 +3 по сезону 1023.4 994.8
В 4-6
{6}
40 км ясно +4.7 +1.2 78 +1 +1 по сезону 1023.1 994.4
В 4-5
{6}
30 км ясно +3.0 +0.8 85 -2 -2 по сезону 1023.4 994.5
В 4-5
{5}
15 км ясно +2.2 +1.0 92 -3 -3 прохладно 1023.2 994.3
В 4 8000 м ясно +1.3 +0.6 95 -4 -4 прохладно 1023.2 994.2 +0.7 +6.4
В 3-4
{5}
3300 м дымка 6/0
[]
+0.9 +0.5 97 -4 -4 прохладно 1023.6 994.5
В 4 400 м туман {дымка} 10/10 <50 м
[]
+0.5 +0.2 98 -5 -5 холодно 1023.5 994.4
В 4 1500 м в посл. час туман {дымка} 10/0
[]
+0.2 -0.1 98 -5 -5 холодно 1023.3 994.1
В 4 100 м переохл. туман {дымка} 10/10 <50 м
[]
-0.1 -0.3 99 -6 -6 холодно 1022.4 993.2
В 5-7
{7}
100 м туман 10/10 <50 м
[]
0.0 -0.1 99 -6 -6 холодно 1021.6 992.5
В 4 400 м переохл. туман {дымка} 10/10 <50 м
[]
-0.1 -0.1 100 -6 -6 холодно 1021.9 992.8
В 4 3400 м в посл. час туман {дымка} 10/10 30 м
[]
-0.3 -0.4 99 -6 -6 холодно 1020.8 991.7
В 5 4700 м дымка 10/10 60 м
[]
-0.4 -0.7 98 -7 -7 холодно 1021.1 991.9
В 6 9000 м {туман, дымка} 10/0
[]
-0.2 -0.9 95 -7 -7 холодно 1020.3 991.2
В 6 6000 м дымка 10/0
[]
-0.4 -1.0 96 -7 -7 холодно 1019.5 990.4
В 6 12 км 10/0
[]
-0.4 -1.2 94 -7 -7 холодно 1019.4 990.3
В 8 21 км {туман, дымка} 10/0
[]
+0.1 -1.1 92 -8 -8 очень
холодно
1018.4 989.4 -0.6 +1.4
В 8-10
{11}
25 км 10/0
[]
0.0 -1.2 92 -8 -8 очень
холодно
1018.5 989.5
В 8-10
{11}
27 км 10/0
[]
+0.1 -1.2 91 -7 -7 холодно 1019.2 990.1
В 8 27 км 10/0
[]
+0.3 -1.1 90 -7 -7 холодно 1019.2 990.2
В 8-10
{12}
30 км 10/0
[]
+0.8 -1.4 85 -6 -6 холодно 1019.5 990.5
В 6-8
{10}
30 км 10/0
[]
+1.3 -1.2 83 -5 -5 холодно 1020.2 991.2
СВ 7 40 км 10/0
[]
+1.9 -1.5 78 -4 -4 прохладно 1019.6 990.7
В 8-10
{11}
55 км 10/0
[]
+2.3 -1.7 75 -4 -4 прохладно 1019.0 990.2
В 6-8
{10}
50 км 10/0
[]
+2.4 -1.4 76 -3 -3 прохладно 1019.0 990.2
В 6 55 км 10/0 2000 м
[]
+2.4 -1.6 75 -3 -3 прохладно 1019.1 990.3
В 5-7
{8}
55 км 10/0 2000 м
[]
+2.3 -1.7 75 -3 -3 прохладно 1019.2 990.4
СВ 3-5
{7}
35 км 10/0 2000 м
[]
+2.0 -1.0 80 -2 -2 по сезону 1020.1 991.2
СВ 3 40 км 10/0 2000 м
[]
+2.0 -1.7 76 -2 -2 по сезону 1020.9 992.0 -0.1 +2.6
С 4 26 км 10/0
[]
+0.9 -1.4 85 -4 -4 прохладно 1021.6 992.6
С 2 15 км 10/0
[]
+0.2 -1.4 89 -3 -3 прохладно 1021.9 992.8
С 3 13 км 10/0
[]
-0.1 -1.3 92 -5 -5 холодно 1022.7 993.5
С 2 11 км 10/0
[]
-0.4 -1.5 92 -4 -4 прохладно 1023.2 994.0
С 2-3
{4}
5000 м дымка 4/4 1080 м
[]
-0.9 -1.4 96 -5 -5 холодно 1023.8 994.5
С 2 10 км 9/9 1000 м
[]
-0.4 -1.3 94 -4 -4 прохладно 1023.8 994.6
ЮВ 3-3
{3}
8000 м 5/5 1230 м
[]
-0.9 -1.6 95 -6 -6 холодно 1024.0 994.7
СЗ 2-3
{6}
4000 м дымка 10/10 1260 м
[]
-1.6 -2.1 96 -6 -6 холодно 1025.0 995.6
З 2 2900 м дымка 4/4 1260 м
[]
-1.7 -2.1 97 -6 -6 холодно 1025.2 995.8
ЮЗ 2-2
{3}
8000 м 9/9 500 м
[]
-0.8 -1.7 94 -5 -5 холодно 1025.4 996.1
З 3-4
{4}
5000 м дымка 9/9 90 м
[]
-0.8 -1.6 94 -6 -6 холодно 1025.9 996.6
З 4 100 м переохл. туман {дымка} 10/10 <50 м
[]
-0.4 -0.5 99 -6 -6 холодно 1026.3 997.0 -1.9 +2.0
ЮЗ 4-4
{4}
100 м переохл. туман 10/10 <50 м
[]
-0.7 -0.8 99 -7 -7 холодно 1026.8 997.4
ЮЗ 4 2900 м в посл. час переохл. осадки (гололёд) {туман} 10/10 570 м
[]
-0.1 -0.2 99 -6 -6 холодно 1027.1 997.8
ЮЗ 4 3300 м дымка {дождь, туман} 9/9 360 м
[]
0.0 -0.2 99 -6 -6 холодно 1027.6 998.3 0.0
ЮЗ 4-5
{5}
3900 м дымка 9/9 1050 м
[]
+0.8 +0.3 96 -5 -5 холодно 1028.4 999.2
ЮЗ 3 4500 м в посл. час дождь 6/6 540 м
[]
+1.8 +0.9 94 -3 -2 прохладно 1028.3 999.2
ЮЗ 4 5000 м в посл. час дождь {туман} 9/9 180 м
[]
+3.0 +2.0 93 -2 -2 по сезону 1028.2 999.2 0.0
ЮЗ 3 1900 м в посл. час дождь {морось} 9/9 150 м
[]
+3.1 +2.8 98 -1 -1 по сезону 1028.0 999.0
ЮЗ 3 2500 м в посл. час дождь {морось} 9/9 120 м
[]
+3.4 +3.0 97 -1 -1 по сезону 1027.8 998.9
ЮЗ 3 3600 м в посл. час дождь {морось} 9/9 120 м
[]
+3.6 +3.2 97 -1 -1 по сезону 1028.1 999.2 1
ЮЗ 2-3
{4}
4000 м дымка 9/9 180 м
[]
+3.7 +3.2 97 +1 +1 по сезону 1028.4 999.5
ЮЗ 4-5
{5}
3500 м дымка 10/10 150 м
[]
+3.6 +3.1 97 -1 -1 по сезону 1028.5 999.6
ЮЗ 2 3100 м дымка {дождь} 9/9 100 м
[]
+3.8 +3.4 97 +1 +1 по сезону 1028.8 999.9 -0.7 +3.8
ЮЗ 3-4
{4}
3000 м дымка 10/10 90 м
[]
+4.2 +3.8 97 0 0 по сезону 1029.0 1000.1
З 3-4
{4}
3400 м дымка 9/9 120 м
[]
+4.2 +3.8 97 0 0 по сезону 1029.5 1000.6
ЮЗ 2 3400 м дымка 10/10 120 м
[]
+4.3 +3.9 97 +1 +1 по сезону 1029.5 1000.6
ЮЗ 2 1700 м дождь {морось} 9/9 90 м
[]
+4.3 +4.0 98 +1 +1 по сезону 1029.7 1000.8
З 2-3
{3}
300 м туман {дождь} 10/10 30 м
[]
+4.3 +4.1 99 +1 +1 по сезону 1030.1 1001.2
З 2 200 м туман {дождь} 10/10 <50 м
[]
+4.5 +4.5 100 +2 +2 по сезону 1029.8 1000.9 0.7
З 3-3
{4}
100 м туман 10/10 <50 м
[]
+4.5 +4.5 100 +1 +1 по сезону 1029.8 1000.9
З 2-3
{4}
200 м туман {дождь} 10/10 <50 м
[]
+4.6 +4.6 100 +2 +2 по сезону 1029.9 1001.0
З 1 200 м туман {дождь} 10/10 <50 м
[]
+4.7 +4.7 100 +3 +3 по сезону 1029.8 1001.0 0.1
ЮЗ 2-2
{2}
100 м туман 10/10 <50 м
[]
+4.5 +4.4 99 +2 +2 по сезону 1029.7 1000.8
ЮЗ 2-3
{3}
600 м туман 10/10 <50 м
[]
+4.6 +4.6 100 +2 +2 по сезону 1029.7 1000.8
ЮЗ 3 300 м туман {дождь} 10/10 <50 м
[]
+4.4 +4.4 100 +1 +1 по сезону 1029.6 1000.7 +3.7 +4.7 0.8
ЮЗ 1-2
{3}
300 м туман 10/10 <50 м
[]
+4.5 +4.4 99 +3 +3 по сезону 1030.0 1001.1
ЮЗ 2 200 м туман 10/10 <50 м
[]
+4.5 +4.4 99 +2 +2 по сезону 1029.9 1001.0
ЮЗ 2 500 м туман {дымка} 10/10 <50 м
[]
+4.7 +4.7 100 +2 +2 по сезону 1030.1 1001.2
ЮЗ 2 2600 м в посл. час туман {дымка} 10/10 90 м
[]
+5.1 +4.6 97 +2 +2 по сезону 1030.1 1001.3
ЮЗ 3-3
{3}
3000 м дымка 10/10 90 м
[]
+5.5 +4.9 96 +2 +2 по сезону 1029.8 1001.0
ЮЗ 3-4
{4}
7000 м дымка {туман} 10/10 750 м
[]
+6.1 +4.8 91 +3 +3 по сезону 1028.9 1000.2
Ю 3-4
{4}
26 км н/о +7.1 +3.4 77 +4 +4 по сезону 1028.2 999.6
ЮЗ 3-4
{5}
55 км ясно +7.1 +2.2 71 +4 +5 по сезону 1027.8 999.2
СЗ 3 2000 м дымка 5/5 30 м
[]
+4.7 +4.1 96 +1 +1 по сезону 1028.2 999.4
З 1 <100 м туман {дымка} 10/10 <50 м
[]
+3.9 +3.9 100 +2 +2 по сезону 1028.3 999.4
Ю 3 17 км в посл. час туман {дымка} 8/8 <50 м
[]
+3.3 +2.6 95 -1 -1 по сезону 1028.2 999.2
Ю 3 23 км {туман, дымка} 5/5 600 м
[]
+3.8 +1.6 86 0 0 по сезону 1028.0 999.1 +3.0 +7.4
Ю 3-3
{3}
23 км ясно +3.3 +1.1 85 -1 -1 по сезону 1027.9 998.9
Ю 3-3
{3}
21 км ясно +3.1 +1.4 89 -1 -1 по сезону 1027.5 998.5
Ю 3-3
{4}
27 км ясно +2.8 +0.7 86 -1 -1 по сезону 1027.2 998.2
ЮВ 2-3
{4}
30 км ясно +3.3 +0.7 83 0 0 по сезону 1026.7 997.8
Ю 2-2
{3}
40 км ясно +2.9 +0.3 83 -0 -0 по сезону 1026.9 997.9
ЮВ 2 30 км ясно +2.3 +0.2 86 -1 -1 по сезону 1026.2 997.2
ЮВ 2-2
{2}
35 км ясно +2.2 -0.1 85 -1 -1 по сезону 1025.4 996.4
ЮВ 2-2
{2}
28 км ясно +1.4 -0.1 90 -2 -2 по сезону 1025.3 996.2
ЮВ 1-1
{2}
35 км ясно +2.5 +0.8 89 +1 +1 по сезону 1024.5 995.6
ЮЗ 1-2
{2}
29 км ясно +1.3 0.0 91 -1 -1 по сезону 1024.3 995.2
ЮВ 2-2
{3}
21 км ясно +0.3 -0.7 93 -3 -3 прохладно 1024.2 995.0
ЮВ 1 30 км ясно +1.6 0.0 89 -0 -0 по сезону 1024.0 995.0 +0.2 +4.1
ЮВ 1-2
{2}
28 км ясно +0.3 -0.9 92 -2 -2 по сезону 1024.0 994.8
В 2-2
{2}
16 км ясно +0.3 -0.7 93 -3 -3 прохладно 1023.8 994.6
В 2 40 км ясно +2.7 -0.3 81 -0 0 по сезону 1023.5 994.6
В 2-2
{3}
24 км ясно +3.3 +0.8 84 0 +2 по сезону 1023.3 994.5
В 2-3
{3}
25 км ясно +4.3 +1.4 81 +2 +3 по сезону 1022.4 993.7
СВ 2-3
{3}
30 км ясно +5.5 +1.3 74 +3 +5 по сезону 1021.5 992.9
СВ 2-3
{4}
30 км ясно +5.6 +1.4 74 +3 +5 по сезону 1020.8 992.3
СВ 4-5
{5}
22 км ясно +5.3 +1.8 78 +1 +2 по сезону 1020.3 991.8
В 4-4
{7}
17 км ясно +4.6 +1.9 83 0 +1 по сезону 1020.4 991.8
В 3-4
{4}
17 км ясно +2.8 +0.9 87 -1 -1 по сезону 1020.7 991.9
В 4-4
{4}
17 км ясно +2.1 +0.5 89 -3 -3 прохладно 1020.7 991.8
В 3 11 км ясно +0.9 -0.2 92 -4 -4 прохладно 1020.6 991.6 -0.3 +5.7
В 3-4
{4}
14 км ясно +2.0 +0.3 88 -2 -2 по сезону 1020.6 991.7
Ю 2-3
{4}
55 км ясно +2.4 -1.8 74 -1 -1 по сезону 1021.0 992.1
ЮЗ 2-2
{4}
35 км ясно +1.3 -1.2 83 -2 -2 по сезону 1020.9 991.9
ЮЗ 2-3
{3}
35 км ясно +0.8 -2.0 82 -3 -3 прохладно 1020.6 991.6
ЮЗ 5-6
{7}
40 км ясно +1.6 -2.7 73 -4 -4 прохладно 1021.0 992.0
ЮЗ 5 45 км ясно +1.5 -3.3 70 -4 -4 прохладно 1020.7 991.7
ЮЗ 5-7
{7}
40 км ясно +2.0 -3.2 68 -3 -3 прохладно 1020.6 991.7
ЮЗ 5-6
{7}
35 км ясно +0.5 -3.1 77 -5 -5 холодно 1021.3 992.2
ЮЗ 6-8
{8}
30 км ясно +1.0 -2.8 76 -5 -5 холодно 1021.2 992.2
ЮЗ 6-8
{8}
30 км ясно +1.1 -2.5 77 -5 -5 холодно 1021.4 992.4
ЮЗ 4-5
{7}
22 км ясно +0.6 -2.6 79 -5 -5 холодно 1021.9 992.8
ЮЗ 4 18 км ясно +0.1 -2.7 81 -5 -5 холодно 1021.6 992.5 -0.3 +2.6
ЮЗ 4-5
{7}
18 км ясно -0.7 -3.1 84 -6 -6 холодно 1022.4 993.2
ЮЗ 3-4
{4}
15 км ясно -0.7 -2.9 85 -6 -6 холодно 1023.1 993.8
ЮЗ 4 15 км ясно +0.6 -2.1 82 -5 -4 холодно 1023.0 993.9
ЮЗ 4-6
{6}
15 км ясно +1.5 -1.8 79 -3 -3 прохладно 1023.1 994.1
Ю 4-6
{6}
15 км ясно +2.8 -1.3 74 -2 -1 по сезону 1022.3 993.4
ЮЗ 5-7
{7}
19 км ясно +3.7 -0.5 74 -1 -0 по сезону 1021.4 992.7
ЮЗ 4-6
{8}
20 км 8/0
[]
+4.1 -0.7 71 0 +1 по сезону 1021.2 992.5
З 5-6
{10}
22 км 3/0
[]
+3.1 -1.3 73 -2 -2 по сезону 1021.3 992.5
З 5 8000 м 8/0
[]
+1.7 -0.2 87 -4 -4 прохладно 1021.7 992.7
ЮЗ 4 3000 м дымка 10/0
[]
+0.7 -0.1 94 -5 -5 холодно 1021.5 992.4
ЮЗ 3 3700 м дымка 10/0
[]
+0.5 -0.3 94 -4 -4 прохладно 1021.4 992.3
ЮЗ 8 7000 м дымка 10/0
[]
+0.8 -0.8 89 -7 -7 холодно 1021.0 992.0 -1.0 +4.2
ЮЗ 8 10 км 10/0
[]
+0.6 -1.3 87 -7 -7 холодно 1020.7 991.7
ЮЗ 9-11
{12}
7000 м дымка 10/10 180 м
[]
+0.8 -0.4 92 -7 -7 холодно 1020.2 991.2
ЮЗ 9 9000 м 9/9 180 м
[]
0.0 -1.3 91 -8 -8 очень
холодно
1019.8 990.7
ЮЗ 7-10
{11}
10 км 8/0
[]
-0.5 -2.2 88 -8 -8 очень
холодно
1019.7 990.6
Ю 5-7
{9}
13 км 10/0
[]
-0.4 -2.8 84 -7 -7 холодно 1019.5 990.4
Ю 6 13 км 9/9 200 м
[]
+0.1 -2.1 85 -6 -6 холодно 1018.5 989.5
ЮЗ 8 20 км 10/0
[]
+0.7 -2.3 80 -6 -6 холодно 1017.4 988.5
ЮЗ 8 28 км 10/0
[]
+1.5 -2.2 76 -5 -5 холодно 1016.8 988.0
ЮЗ 9 30 км 10/0
[]
+2.3 -1.2 78 -5 -5 холодно 1016.1 987.4
ЮЗ 10 30 км 10/10 1500 м
[]
+2.8 -0.6 78 -4 -4 прохладно 1015.4 986.7
ЮЗ 10-15
{15}
35 км в посл. час снег {дождь} 9/9 1410 м
[]
+3.4 -0.6 75 -3 -3 прохладно 1015.0 986.4
ЮЗ 9 45 км в посл. час дождь 10/10 1000 м
[]
+3.8 -0.9 71 -3 -3 прохладно 1014.7 986.2 -0.5 +3.8 0.0
ЮЗ 9 50 км 10/10 1320 м
[]
+3.6 -1.1 71 -3 -3 прохладно 1014.5 985.9
ЮЗ 11 60 км 9/9 1200 м
[]
+4.0 -1.3 68 -3 -3 прохладно 1014.4 985.9
ЮЗ 10 40 км в посл. час дождь 10/10 570 м
[]
+4.1 -0.3 73 -2 -2 по сезону 1014.2 985.7 0.0
ЮЗ 10 13 км слаб. дождь 9/9 840 м
[]
+4.5 +1.9 83 -2 -2 по сезону 1013.9 985.5
ЮЗ 12 18 км в посл. час дождь 9/9 630 м
[]
+5.5 +2.7 82 -1 -1 по сезону 1012.7 984.4
Ю 11 6000 м дождь {осадки} 10/10 630 м
[]
+5.3 +3.9 91 -1 -1 по сезону 1011.6 983.3 2
ЮЗ 11 60 км в посл. час дождь 10/10 500 м
[]
+6.2 +3.7 84 0 0 по сезону 1010.8 982.6
ЮЗ 12 5000 м сильные осадки 9/9 480 м
[]
+5.8 +4.4 91 -1 -1 по сезону 1009.8 981.6
ЮЗ 11 40 км в посл. час дождь 10/10 1080 м
[]
+6.0 +4.2 88 -0 -0 по сезону 1008.9 980.8 2
ЮЗ 11 >70 км в посл. час дождь 9/9 660 м
[]
+6.2 +4.3 88 -0 -0 по сезону 1008.0 979.9
ЮЗ 11 6000 м слаб. морось с дождем 10/10 270 м
[]
+6.0 +5.0 93 -1 -1 по сезону 1007.9 979.8
ЮЗ 10 10 км слаб. морось с дождем 10/10 200 м
[]
+5.7 +4.7 93 -1 -1 по сезону 1007.5 979.4 +3.5 +6.4 1
ЮЗ 11 5000 м в посл. час дождь 9/9 270 м
[]
+5.9 +4.7 92 -1 -1 по сезону 1007.4 979.3
ЮЗ 14 5000 м в посл. час дождь 10/10 270 м
[]
+6.0 +4.8 92 -1 -1 по сезону 1007.1 979.0
ЮЗ 13 4400 м слаб. дождь {осадки} 9/9 300 м
[]
+6.2 +5.4 95 -1 -1 по сезону 1007.2 979.1 3
ЮЗ 12 16 км в посл. час дождь 9/9 270 м
[]
+6.6 +5.6 93 0 0 по сезону 1006.9 978.9
ЮЗ 11 7000 м слаб. морось с дождем 9/9 270 м
[]
+6.7 +5.9 95 +1 +1 по сезону 1007.2 979.2
ЮЗ 10 18 км слаб. дождь {осадки} 9/9 200 м
[]
+7.3 +6.5 95 +2 +2 по сезону 1008.0 980.0 2
З 9 30 км в посл. час дождь 9/9 300 м
[]
+8.2 +6.8 91 +3 +3 по сезону 1008.2 980.3
З 10 13 км в посл. час дождь {морось} 9/9 270 м
[]
+8.0 +6.8 92 +3 +3 по сезону 1009.0 981.1
З 10 21 км в посл. час дождь {морось} 9/9 300 м
[]
+8.1 +6.6 90 +3 +3 по сезону 1009.8 981.9 0.2
З 9 27 км в посл. час дождь 10/10 330 м
[]
+7.8 +6.4 91 +3 +3 по сезону 1010.8 982.8
З 8 12 км в посл. час дождь 10/10 300 м
[]
+7.7 +6.4 91 +3 +3 по сезону 1011.5 983.5
З 8 28 км в посл. час дождь {морось} 10/10 300 м
[]
+7.7 +6.1 90 +3 +3 по сезону 1012.3 984.3 +5.5 +8.4 6
З 8 28 км в посл. час дождь 10/10 330 м
[]
+7.5 +5.9 90 +2 +2 по сезону 1013.0 984.9
З 7 30 км 10/10 360 м
[]
+7.5 +5.7 88 +3 +3 по сезону 1013.7 985.6
З 7 30 км {дождь} 10/10 360 м
[]
+7.7 +5.6 87 +3 +3 по сезону 1014.2 986.1 0.0
З 6 35 км 10/10 480 м
[]
+8.0 +5.4 84 +4 +4 по сезону 1014.8 986.7
З 7-11
{11}
45 км 10/10 1170 м
[]
+8.0 +4.5 79 +4 +4 по сезону 1015.0 986.9
Местоположение метеостанции Аахен (Германия): широта 50.78 долгота 6.01 высота над уровнем моря 231 м.
В архиве по умолчанию представлена погода в Аахене за последнюю неделю. Архивные данные за месяц целиком и за предыдущие месяцы, начиная с января 2011 года, Вы можете получить, выбрав интересующий диапазон дат из раскрывающегося списка и нажав кнопку "Найти!".
*Определитесь, кто Вы:
Внимание! Время в таблицах - всемирное. Для получения местного времени необходимо прибавить поправку, которая равна 1 ч.
Смотрите также архив погоды в соседних городах и на ближайших метеорологических станциях:
Партнеры нашего сайта:      
Пояснения к столбцам:
  • Ветер - указаны скорость ветра в м/с - средняя за 10 мин, порывы в срок и между сроками (в фигурных скобках) и направление, откуда дует ветер: С - северный,
  • СВ - северо-восточный, В - восточный, ЮВ - юго-восточный, Ю - южный, ЮЗ - юго-западный, З - западный, СЗ - северо-западный.
  • Видимость - горизонтальная дальность видимости в метрах или километрах. При видимости от 1 до 10 км при отсутствии осадков обычно наблюдается дымка, при ухудшении видимости до 1 км и менее - туман. В сухую погоду видимость может ухудшаться дымом, пылью или мглою.
  • Явления - указаны атмосферные явления, наблюдавшиеся в срок или в последний час перед сроком; фигурными скобками обозначены явления, наблюдавшиеся между сроками (за 1-3 часа до срока); квадратными скобками обозначены град или гололедные отложения с указанием их диаметра в мм.
  • Облачность - указаны через наклонную черту общая и нижняя облачность в баллах и высота нижней границы облаков в метрах; квадратными скобками обозначены формы облаков: Ci - перистые, Cs - перисто-слоистые, Cc - перисто-кучевые, Ac - высококучевые, As - высокослоистые, Sc - слоисто-кучевые, Ns - слоисто-дождевые, Cu - кучевые, Cb - кучево-дождевые. Подробнее классификацию облаков см. в Атласе облаков (PDF).
  • T - Температура воздуха - температура, измеренная на высоте 2 м над землей.
  • Td - Температура точки росы - температура, при понижении до которой содержащийся в воздухе водяной пар достигнет насыщения.
  • f - Относительная влажность воздуха - влажноcть воздуха, измеренная на высоте 2 м над землей.
  • Te - Эффективная температура - температура, которую ощущает одетый по сезону человек в тени. Характеристика душности погоды. При расчете учитывается влияние влажности воздуха и скорости ветра на теплоощущения человека.
  • Tes - Эффективная температура на солнце - температура, которую ощущает человек, с поправкой на солнечный нагрев. Характеристика знойности погоды. Зависит от высоты солнца над горизонтом, облачности и скорости ветра. Ночью, в пасмурную погоду, а также при ветре 12 м/с и более поправка равна нулю.
  • P - Атмосферное давление - приведенное к уровню моря атмосферное давление.
  • Po - Атмосферное давление - измеренное на уровне метеостанции атмосферное давление.
  • Tmin - Минимальная температура - минимум температуры воздуха на высоте 2 м над землей.
  • Tmax - Максимальная температура - максимум температуры воздуха на высоте 2 м над землей.
  • R - Количество осадков - Количество выпавших осадков за период времени, мм. При наведении курсора мыши на число - период времени, за который выпало указанное количество осадков.
  • R24 - Количество осадков - Количество выпавших осадков за 24 часа, мм.
  • S - Снежный покров - Высота снежного покрова, см. При наведении курсора мыши на число - состояние снежного покрова и степень покрытия местности в баллах.